Stündliche Wetter Dziarnow

Heute, 14 Juni, Montag

Zeit Temperatur Niederschläge Wind Luftdruck Luftfeuchtigkeit
00:00 +10°C° 0 mm 4 m/S 753 mmHg 93%
01:00 +8°C° 0 mm 4 m/S 754 mmHg 94%
02:00 +8°C° 0 mm 4 m/S 754 mmHg 94%
03:00 +8°C° 0 mm 4 m/S 754 mmHg 95%
04:00 +7°C° 0 mm 4 m/S 754 mmHg 95%
05:00 +10°C° 0 mm 4 m/S 754 mmHg 90%
06:00 +12°C° 0 mm 4 m/S 754 mmHg 85%
07:00 +13°C° 0 mm 4 m/S 754 mmHg 80%
08:00 +15°C° 0 mm 4 m/S 754 mmHg 73%
09:00 +17°C° 0 mm 4 m/S 754 mmHg 66%
10:00 +19°C° 0 mm 4 m/S 754 mmHg 59%
11:00 +19°C° 0 mm 4 m/S 754 mmHg 56%
12:00 +20°C° 0 mm 4 m/S 754 mmHg 53%
13:00 +21°C° 0 mm 4 m/S 753 mmHg 49%
14:00 +21°C° 0 mm 4 m/S 753 mmHg 49%
15:00 +21°C° 0 mm 4 m/S 753 mmHg 49%
16:00 +22°C° 0 mm 4 m/S 753 mmHg 49%
17:00 +20°C° 0 mm 3 m/S 753 mmHg 56%
18:00 +19°C° 0 mm 2 m/S 752 mmHg 63%
19:00 +18°C° 0 mm 2 m/S 752 mmHg 69%
20:00 +18°C° 0 mm 1 m/S 752 mmHg 71%
21:00 +16°C° 0 mm 1 m/S 753 mmHg 73%
22:00 +15°C° 0 mm 1 m/S 753 mmHg 75%
23:00 +14°C° 0 mm 1 m/S 753 mmHg 78%

Morgen, 15 Juni, Dienstag

Zeit Temperatur Niederschläge Wind Luftdruck Luftfeuchtigkeit
00:00 +14°C° 0 mm 1 m/S 752 mmHg 81%
01:00 +13°C° 0 mm 2 m/S 752 mmHg 84%
02:00 +13°C° 0 mm 2 m/S 752 mmHg 84%
03:00 +13°C° 0 mm 2 m/S 752 mmHg 85%
04:00 +13°C° 0 mm 2 m/S 752 mmHg 86%
05:00 +14°C° 0 mm 2 m/S 752 mmHg 80%
06:00 +16°C° 0 mm 2 m/S 753 mmHg 75%
07:00 +18°C° 0 mm 2 m/S 753 mmHg 70%
08:00 +19°C° 0 mm 2 m/S 753 mmHg 65%
09:00 +20°C° 0 mm 2 m/S 752 mmHg 61%
10:00 +21°C° 0 mm 2 m/S 752 mmHg 57%
11:00 +23°C° 0 mm 2 m/S 752 mmHg 55%
12:00 +23°C° 0 mm 2 m/S 752 mmHg 53%
13:00 +24°C° 0 mm 2 m/S 752 mmHg 51%
14:00 +24°C° 0 mm 2 m/S 751 mmHg 53%
15:00 +24°C° 0 mm 2 m/S 751 mmHg 54%
16:00 +24°C° 0 mm 2 m/S 751 mmHg 56%
17:00 +23°C° 0 mm 2 m/S 751 mmHg 61%
18:00 +21°C° 0 mm 2 m/S 751 mmHg 67%
19:00 +20°C° 0 mm 2 m/S 751 mmHg 73%
20:00 +19°C° 0 mm 2 m/S 751 mmHg 78%
21:00 +18°C° 0 mm 2 m/S 751 mmHg 84%
22:00 +17°C° 0 mm 2 m/S 751 mmHg 90%
23:00 +16°C° 0 mm 2 m/S 752 mmHg 91%

übermorgen, 16 Juni, Mittwoch

Zeit Temperatur Niederschläge Wind Luftdruck Luftfeuchtigkeit
00:00 +16°C° 0 mm 2 m/S 752 mmHg 93%
01:00 +16°C° 0 mm 2 m/S 752 mmHg 95%
02:00 +15°C° 0 mm 2 m/S 752 mmHg 95%
03:00 +15°C° 0 mm 2 m/S 752 mmHg 96%
04:00 +14°C° 0 mm 2 m/S 752 mmHg 96%
05:00 +14°C° 0 mm 3 m/S 753 mmHg 88%
06:00 +16°C° 0 mm 3 m/S 753 mmHg 80%
07:00 +17°C° 0 mm 3 m/S 753 mmHg 72%
08:00 +18°C° 0 mm 3 m/S 753 mmHg 68%
09:00 +19°C° 0 mm 3 m/S 753 mmHg 63%
10:00 +21°C° 0 mm 2 m/S 754 mmHg 58%
11:00 +21°C° 0 mm 2 m/S 753 mmHg 56%
12:00 +22°C° 0 mm 3 m/S 753 mmHg 54%
13:00 +24°C° 0 mm 3 m/S 753 mmHg 51%
14:00 +24°C° 0 mm 3 m/S 753 mmHg 49%
15:00 +24°C° 0 mm 3 m/S 753 mmHg 47%
16:00 +24°C° 0 mm 3 m/S 753 mmHg 45%
17:00 +22°C° 0 mm 3 m/S 753 mmHg 53%
18:00 +20°C° 0 mm 3 m/S 753 mmHg 60%
19:00 +19°C° 0 mm 3 m/S 753 mmHg 68%
20:00 +17°C° 0 mm 3 m/S 753 mmHg 70%
21:00 +16°C° 0 mm 2 m/S 754 mmHg 72%
22:00 +15°C° 0 mm 2 m/S 754 mmHg 74%
23:00 +14°C° 0 mm 2 m/S 754 mmHg 77%

17 Juni, Donnerstag

Zeit Temperatur Niederschläge Wind Luftdruck Luftfeuchtigkeit
00:00 +13°C° 0 mm 2 m/S 754 mmHg 80%
01:00 +13°C° 0 mm 2 m/S 754 mmHg 82%
02:00 +13°C° 0 mm 2 m/S 754 mmHg 84%
03:00 +12°C° 0 mm 2 m/S 754 mmHg 86%
04:00 +11°C° 0 mm 3 m/S 754 mmHg 88%
05:00 +13°C° 0 mm 3 m/S 754 mmHg 82%
06:00 +16°C° 0 mm 3 m/S 754 mmHg 76%
07:00 +18°C° 0 mm 3 m/S 754 mmHg 69%
08:00 +19°C° 0 mm 3 m/S 754 mmHg 64%
09:00 +21°C° 0 mm 3 m/S 754 mmHg 58%
10:00 +22°C° 0 mm 4 m/S 755 mmHg 52%
11:00 +23°C° 0 mm 4 m/S 754 mmHg 49%
12:00 +25°C° 0 mm 4 m/S 754 mmHg 47%
13:00 +26°C° 0 mm 4 m/S 754 mmHg 44%
14:00 +26°C° 0 mm 4 m/S 754 mmHg 45%
15:00 +26°C° 0 mm 4 m/S 754 mmHg 46%
16:00 +26°C° 0 mm 4 m/S 753 mmHg 47%
17:00 +25°C° 0 mm 4 m/S 753 mmHg 56%
18:00 +22°C° 0 mm 3 m/S 753 mmHg 64%
19:00 +21°C° 0 mm 3 m/S 753 mmHg 72%
20:00 +20°C° 0 mm 3 m/S 753 mmHg 76%
21:00 +19°C° 0 mm 3 m/S 754 mmHg 80%
22:00 +17°C° 0 mm 3 m/S 754 mmHg 84%
23:00 +17°C° 0 mm 3 m/S 754 mmHg 85%

18 Juni, Freitag

Zeit Temperatur Niederschläge Wind Luftdruck Luftfeuchtigkeit
00:00 +17°C° 0 mm 3 m/S 753 mmHg 87%
01:00 +16°C° 0 mm 3 m/S 753 mmHg 88%
02:00 +16°C° 0 mm 3 m/S 753 mmHg 89%
03:00 +16°C° 0 mm 3 m/S 753 mmHg 91%
04:00 +16°C° 0 mm 3 m/S 753 mmHg 93%
05:00 +18°C° 0 mm 4 m/S 753 mmHg 87%
06:00 +20°C° 0 mm 4 m/S 753 mmHg 81%
07:00 +22°C° 0 mm 5 m/S 753 mmHg 75%
08:00 +23°C° 0 mm 5 m/S 753 mmHg 70%
09:00 +25°C° 0 mm 5 m/S 753 mmHg 64%
10:00 +27°C° 0 mm 6 m/S 753 mmHg 58%
11:00 +27°C° 0 mm 6 m/S 753 mmHg 56%
12:00 +28°C° 0 mm 5 m/S 753 mmHg 53%
13:00 +28°C° 0 mm 5 m/S 753 mmHg 50%
14:00 +29°C° 0 mm 5 m/S 752 mmHg 52%
15:00 +29°C° 0 mm 5 m/S 752 mmHg 54%
16:00 +29°C° 0 mm 5 m/S 752 mmHg 55%
17:00 +27°C° 0 mm 4 m/S 752 mmHg 62%
18:00 +26°C° 0 mm 4 m/S 752 mmHg 70%
19:00 +25°C° 0 mm 3 m/S 752 mmHg 77%
20:00 +22°C° 0 mm 3 m/S 752 mmHg 81%
21:00 +21°C° 0 mm 3 m/S 753 mmHg 86%
22:00 +20°C° 0 mm 2 m/S 753 mmHg 91%
23:00 +19°C° 0 mm 2 m/S 753 mmHg 92%

19 Juni, Samstag

Zeit Temperatur Niederschläge Wind Luftdruck Luftfeuchtigkeit
00:00 +19°C° 0 mm 2 m/S 753 mmHg 93%
01:00 +19°C° 0 mm 2 m/S 753 mmHg 94%
02:00 +18°C° 0 mm 3 m/S 753 mmHg 94%
03:00 +18°C° 0 mm 3 m/S 753 mmHg 94%
04:00 +17°C° 0 mm 3 m/S 753 mmHg 94%
05:00 +19°C° 0 mm 3 m/S 753 mmHg 88%
06:00 +20°C° 0 mm 4 m/S 753 mmHg 82%
07:00 +22°C° 0 mm 4 m/S 753 mmHg 76%
08:00 +23°C° 0 mm 5 m/S 754 mmHg 72%
09:00 +25°C° 0 mm 5 m/S 754 mmHg 68%
10:00 +26°C° 0 mm 5 m/S 754 mmHg 65%
11:00 +26°C° 0 mm 5 m/S 754 mmHg 64%
12:00 +26°C° 0 mm 5 m/S 754 mmHg 63%
13:00 +27°C° 0 mm 5 m/S 754 mmHg 63%
14:00 +27°C° 0 mm 5 m/S 753 mmHg 64%
15:00 +26°C° 0 mm 6 m/S 753 mmHg 64%
16:00 +26°C° 0 mm 6 m/S 753 mmHg 65%
17:00 +25°C° 0 mm 5 m/S 753 mmHg 70%
18:00 +23°C° 0 mm 4 m/S 753 mmHg 74%
19:00 +22°C° 0 mm 3 m/S 753 mmHg 79%
20:00 +21°C° 0 mm 3 m/S 753 mmHg 84%
21:00 +20°C° 0 mm 3 m/S 753 mmHg 88%
22:00 +19°C° 0 mm 2 m/S 753 mmHg 93%
23:00 +19°C° 0 mm 3 m/S 753 mmHg 94%
Mehr zeigen

Wir brauchen deine Erlaubnis

Meteoprog und unser Service Anbieter werden persönliche Daten aufbewahren, so wie Cookies, Geräte Bezeichnung oder ähnliche Technologien von deinem Gerät und Prozess, so wie Persönliche Daten Inhalte und Werbungen, genauso wie social Media und den Verkehr zu analysieren.

  • Aufbewahrung und/oder Zugang zu deiner Geräte Informationen.

    Cookies, Geräte Bezeichnung oder andere Informationen, können aufbewahrt oder Zugang zu deinem Gerät erhalten, für den Grund, der oben angegeben wird.

  • Personalisierte Werbung und Inhalte, Messungen, Einblick in das Publikum und Produkt Entwicklung.

    Werbungen und Inhalte können personalisiert werden, basierend auf ein Profil. Mehr Daten können besser personalisierte Werbungen und Inhalte hinzufügen. Werbung und Inhalte können gezeigt und gemessen werden. Einblicke über das Publikum, welche die Werbung gesehen haben und den Inhalt, können abgeleitet werden. So wie Daten können genutzt werden, um es zu verbessern oder die Benutzer Erfahrung zu verbessern das System und die Software.

Wenn du “Ich stimme zu” klickst, erlaubst du uns, die Cookies zu benutzen die Geräte Bezeichnung, den Web oder ähnliche Technologien zu benutzen. Deine Settings, können in deinem Gerät bei deinem Browser geändert werden.

Für den bestimmten Zweck, berechtigten Interessen beruhen darauf, mehr als auf den Inhalt. Du kannst mehr darüber in unseren Privaten und Cookie Politik lesen.